Change the Weather History Date:

Saturday, March 8, 2014

  Actual Average Record
Temperature  
Mean Temperature 31 °F 26 °F  
Max Temperature 44 °F 36 °F 62 °F (1977)
Min Temperature 17 °F 16 °F -28 °F (1995)
Degree Days  
Heating Degree Days 34 39  
Month to date heating degree days 415 323  
Since 1 July heating degree days 7267 6754  
Cooling Degree Days 0 0  
Month to date cooling degree days 0 0  
Year to date cooling degree days 0 0  
Moisture  
Dew Point 20 °F    
Average Humidity 71    
Maximum Humidity 82    
Minimum Humidity 59    
Precipitation  
Precipitation 0.00 in 0.02 in 0.83 in (2000)
Month to date precipitation 0.10 0.19  
Year to date precipitation 0.67 1.13  
Snow  
Snow 0.00 in 0.30 in 3.00 in (2002)
Month to date snowfall 1.8 2.5  
Since 1 July snowfall 27.0 40.0  
Snow Depth T in    
Sea Level Pressure  
Sea Level Pressure 30.20 in    
Wind  
Wind Speed 9 mph (South)    
Max Wind Speed 18 mph    
Max Gust Speed 23 mph    
Visibility 10 miles    
Events      
T = Trace of Precipitation, MM = Missing Value Source: NWS Daily Summary

Daily Weather History Graph

Daily Weather History Graph

Search for Another Location

Airport or City:

Trip Planner

Search our weather history database for the weather conditions in past years. The results will help you decide how hot, cold, wet, or windy it might be!

Date:

Astronomy

Mar. 08, 2014 Rise Set
Actual Time 7:09 AM CST 6:38 PM CST
Civil Twilight 6:39 AM CST 7:09 PM CST
Nautical Twilight 6:04 AM CST 7:44 PM CST
Astronomical Twilight 5:28 AM CST 8:19 PM CST
Moon 11:28 AM CST (3/8) 2:01 AM CST (3/8)
Length of Visible Light 12h 30m
Length of Day
11h 29m
First Quarter, 52% of the Moon is Illuminated
Mar 8
First Quarter
Mar 16
Full
Mar 23
Last Quarter
Mar 30
New
Apr 7
First Quarter

Hourly Weather History & Observations

Time (CST) Temp. Windchill Dew Point Humidity Pressure Visibility Wind Dir Wind Speed Gust Speed Precip Events Conditions
12:52 AM 17.1 °F 8.7 °F 10.0 °F 74% 30.38 in 10.0 mi SE 5.8 mph - N/A   Overcast
1:52 AM 17.1 °F 8.7 °F 10.0 °F 74% 30.38 in 10.0 mi SSE 5.8 mph - N/A   Overcast
2:52 AM 17.1 °F 6.6 °F 10.0 °F 74% 30.37 in 10.0 mi South 8.1 mph - N/A   Overcast
3:47 AM 17.6 °F 7.3 °F 10.4 °F 73% 30.26 in 10.0 mi South 8.1 mph - N/A   Overcast
3:52 AM 17.1 °F 7.6 °F 10.0 °F 74% 30.36 in 10.0 mi South 6.9 mph - N/A   Overcast
4:52 AM 17.1 °F 10.0 °F 10.0 °F 74% 30.35 in 10.0 mi SSE 4.6 mph - N/A   Overcast
5:01 AM 18.0 °F 9.8 °F 10.0 °F 71% 30.25 in 10.0 mi SSE 5.8 mph - N/A   Overcast
5:29 AM 18.0 °F 11.1 °F 10.0 °F 71% 30.25 in 10.0 mi South 4.6 mph - N/A   Overcast
5:52 AM 18.0 °F 11.1 °F 10.9 °F 74% 30.34 in 10.0 mi South 4.6 mph - N/A   Overcast
6:52 AM 18.0 °F - 12.0 °F 78% 30.34 in 10.0 mi Calm Calm - N/A   Overcast
7:40 AM 19.0 °F 10.0 °F 12.0 °F 74% 30.24 in 10.0 mi SSE 6.9 mph - N/A   Overcast
7:52 AM 19.0 °F 10.0 °F 12.0 °F 74% 30.34 in 10.0 mi SSE 6.9 mph - N/A   Overcast
8:05 AM 19.0 °F 10.0 °F 12.0 °F 74% 30.24 in 10.0 mi South 6.9 mph - N/A   Overcast
8:52 AM 19.9 °F 11.1 °F 12.9 °F 74% 30.33 in 10.0 mi SSE 6.9 mph - N/A   Overcast
9:52 AM 23.0 °F 15.8 °F 14.0 °F 68% 30.31 in 10.0 mi SSW 5.8 mph - N/A   Overcast
10:52 AM 28.0 °F 20.0 °F 17.1 °F 63% 30.30 in 10.0 mi SSW 8.1 mph - N/A   Overcast
11:32 AM 30.0 °F 22.4 °F 19.0 °F 64% 30.20 in 10.0 mi SW 8.1 mph - N/A   Partly Cloudy
11:52 AM 32.0 °F 24.2 °F 19.9 °F 61% 30.28 in 10.0 mi South 9.2 mph - N/A   Clear
12:52 PM 36.0 °F 27.5 °F 24.1 °F 62% 30.24 in 10.0 mi SW 12.7 mph - N/A   Clear
1:52 PM 39.0 °F 30.6 °F 26.1 °F 60% 30.19 in 10.0 mi SSW 15.0 mph 19.6 mph N/A   Clear
2:52 PM 41.0 °F 33.5 °F 28.9 °F 62% 30.16 in 10.0 mi SSW 13.8 mph - N/A   Clear
3:52 PM 43.0 °F 36.0 °F 30.0 °F 60% 30.13 in 10.0 mi South 13.8 mph - N/A   Clear
4:52 PM 44.1 °F 38.1 °F 32.0 °F 63% 30.10 in 10.0 mi SSW 11.5 mph - N/A   Clear
5:52 PM 42.1 °F 36.1 °F 32.0 °F 67% 30.08 in 10.0 mi South 10.4 mph - N/A   Clear
6:52 PM 36.0 °F 31.1 °F 30.0 °F 79% 30.06 in 10.0 mi SSE 5.8 mph - N/A   Clear
7:52 PM 39.0 °F 32.3 °F 32.0 °F 76% 30.03 in 10.0 mi SSW 10.4 mph - N/A   Clear
8:52 PM 39.9 °F 32.5 °F 33.1 °F 77% 30.01 in 10.0 mi SSW 12.7 mph - N/A   Clear
9:52 PM 39.9 °F 32.5 °F 34.0 °F 79% 29.96 in 10.0 mi SSW 12.7 mph - N/A   Clear
10:52 PM 39.9 °F 33.4 °F 34.0 °F 79% 29.93 in 10.0 mi SW 10.4 mph - N/A   Clear
11:52 PM 37.9 °F 35.5 °F 33.1 °F 83% 29.88 in 10.0 mi South 3.5 mph - N/A   Clear